Torna al catalogo

FENGYUN 1C DEB

AttivoPO
NORAD 31980·DEBRIS·🇨🇳 China

Lanciato May 10, 1999 da Taiyuan Satellite Launch Center

Loading…

Prossimi Passaggi (prossime 24 ore)

TLE

In scadenzaSource: Space-Track

Epoca: Sep 10, 2026, 07:15 UTC

1 31980U 99025CPH 26253.30271047  .00000312  00000-0  41470-3 0  9993
2 31980  97.5851 273.8660 0428357 135.5261 228.1110 13.32381381932868

Traccia FENGYUN 1C DEB in tempo reale con AllMySat

Download on the App Store